When you browse on this site, cookies collect data to enhance your experience and personalize the content and advertising you see.
Visit our Privacy Policy to learn more. By continuing to use the site, you agree to this use of cookies and data.
EN

Hourly Weather Delhi

Today, 3 August, Monday

Time Temperature Precipitation Wind Pressure Humidity
00:00 +35°C° 0.6 mm 1 mps 727 mmHg 57%
01:00 +35°C° 0.6 mm 1 mps 727 mmHg 60%
02:00 +35°C° 0.6 mm 2 mps 727 mmHg 63%
03:00 +35°C° 0.2 mm 2 mps 727 mmHg 62%
04:00 +35°C° 0.2 mm 2 mps 727 mmHg 61%
05:00 +35°C° 0 mm 2 mps 727 mmHg 62%
06:00 +36°C° 0.2 mm 3 mps 727 mmHg 59%
07:00 +37°C° 0.2 mm 4 mps 728 mmHg 56%
08:00 +37°C° 0.2 mm 5 mps 728 mmHg 54%
09:00 +40°C° 0.1 mm 5 mps 728 mmHg 49%
10:00 +41°C° 0.1 mm 5 mps 728 mmHg 44%
11:00 +41°C° 0 mm 5 mps 728 mmHg 46%
12:00 +42°C° 0 mm 4 mps 727 mmHg 44%
13:00 +42°C° 0 mm 4 mps 727 mmHg 41%
14:00 +43°C° 0 mm 4 mps 726 mmHg 38%
15:00 +43°C° 0 mm 4 mps 725 mmHg 37%
16:00 +43°C° 0 mm 3 mps 724 mmHg 37%
17:00 +41°C° 0 mm 2 mps 724 mmHg 42%
18:00 +40°C° 0.1 mm 2 mps 724 mmHg 44%
19:00 +39°C° 0.1 mm 2 mps 724 mmHg 47%
20:00 +38°C° 0.1 mm 2 mps 724 mmHg 49%
21:00 +38°C° 0.1 mm 2 mps 725 mmHg 51%
22:00 +37°C° 0.1 mm 2 mps 725 mmHg 53%
23:00 +37°C° 0.1 mm 2 mps 725 mmHg 55%

Tomorrow, 4 August, Tuesday

Time Temperature Precipitation Wind Pressure Humidity
00:00 +36°C° 0.2 mm 3 mps 725 mmHg 57%
01:00 +35°C° 0.2 mm 3 mps 725 mmHg 60%
02:00 +35°C° 0.2 mm 3 mps 725 mmHg 63%
03:00 +34°C° 0.1 mm 3 mps 725 mmHg 63%
04:00 +34°C° 0.1 mm 3 mps 725 mmHg 64%
05:00 +34°C° 0.1 mm 2 mps 725 mmHg 64%
06:00 +35°C° 0 mm 2 mps 726 mmHg 60%
07:00 +36°C° 0 mm 2 mps 726 mmHg 57%
08:00 +36°C° 0 mm 1 mps 727 mmHg 53%
09:00 +39°C° 0 mm 2 mps 726 mmHg 47%
10:00 +41°C° 0 mm 2 mps 726 mmHg 40%
11:00 +43°C° 0 mm 3 mps 726 mmHg 34%
12:00 +44°C° 0 mm 3 mps 725 mmHg 32%
13:00 +45°C° 0 mm 3 mps 725 mmHg 30%
14:00 +45°C° 0 mm 4 mps 724 mmHg 29%
15:00 +45°C° 0 mm 4 mps 724 mmHg 30%
16:00 +44°C° 0 mm 4 mps 723 mmHg 32%
17:00 +44°C° 0 mm 3 mps 722 mmHg 33%
18:00 +43°C° 0 mm 3 mps 723 mmHg 35%
19:00 +41°C° 0 mm 2 mps 723 mmHg 37%
20:00 +40°C° 0 mm 2 mps 723 mmHg 39%
21:00 +40°C° 0 mm 2 mps 723 mmHg 42%
22:00 +39°C° 0 mm 2 mps 723 mmHg 45%
23:00 +38°C° 0 mm 2 mps 724 mmHg 48%

Day after tomorrow, 5 August, Wednesday

Time Temperature Precipitation Wind Pressure Humidity
00:00 +38°C° 0 mm 2 mps 724 mmHg 49%
01:00 +38°C° 0 mm 2 mps 724 mmHg 50%
02:00 +37°C° 0 mm 2 mps 724 mmHg 51%
03:00 +37°C° 0 mm 2 mps 724 mmHg 52%
04:00 +37°C° 0 mm 2 mps 724 mmHg 53%
05:00 +36°C° 0 mm 2 mps 724 mmHg 53%
06:00 +37°C° 0 mm 2 mps 725 mmHg 52%
07:00 +38°C° 0 mm 2 mps 725 mmHg 50%
08:00 +38°C° 0 mm 2 mps 725 mmHg 49%
09:00 +40°C° 0 mm 2 mps 725 mmHg 45%
10:00 +41°C° 0 mm 2 mps 725 mmHg 40%
11:00 +43°C° 0 mm 2 mps 725 mmHg 36%
12:00 +44°C° 0 mm 3 mps 725 mmHg 34%
13:00 +45°C° 0 mm 3 mps 725 mmHg 32%
14:00 +47°C° 0 mm 4 mps 724 mmHg 30%
15:00 +45°C° 0 mm 4 mps 724 mmHg 31%
16:00 +45°C° 0 mm 4 mps 724 mmHg 32%
17:00 +44°C° 0 mm 4 mps 724 mmHg 33%
18:00 +43°C° 0 mm 4 mps 724 mmHg 35%
19:00 +42°C° 0 mm 4 mps 725 mmHg 37%
20:00 +41°C° 0 mm 4 mps 725 mmHg 40%
21:00 +41°C° 0 mm 4 mps 726 mmHg 42%
22:00 +40°C° 0 mm 4 mps 726 mmHg 44%
23:00 +40°C° 0 mm 4 mps 727 mmHg 47%

6 August, Thursday

Time Temperature Precipitation Wind Pressure Humidity
00:00 +38°C° 0 mm 4 mps 727 mmHg 51%
01:00 +37°C° 0 mm 5 mps 727 mmHg 55%
02:00 +36°C° 0 mm 5 mps 727 mmHg 60%
03:00 +36°C° 0 mm 5 mps 727 mmHg 60%
04:00 +35°C° 0 mm 5 mps 727 mmHg 60%
05:00 +35°C° 0 mm 5 mps 727 mmHg 60%
06:00 +35°C° 0 mm 5 mps 728 mmHg 59%
07:00 +35°C° 0 mm 5 mps 728 mmHg 59%
08:00 +35°C° 0 mm 5 mps 729 mmHg 59%
09:00 +36°C° 0 mm 5 mps 729 mmHg 55%
10:00 +39°C° 0 mm 5 mps 729 mmHg 51%
11:00 +40°C° 0 mm 5 mps 729 mmHg 48%
12:00 +41°C° 0 mm 5 mps 728 mmHg 45%
13:00 +42°C° 0 mm 6 mps 728 mmHg 42%
14:00 +42°C° 0 mm 6 mps 727 mmHg 39%
15:00 +42°C° 0 mm 6 mps 727 mmHg 41%
16:00 +41°C° 0 mm 6 mps 727 mmHg 44%
17:00 +40°C° 0 mm 5 mps 726 mmHg 46%
18:00 +39°C° 0.1 mm 5 mps 727 mmHg 49%
19:00 +38°C° 0.1 mm 4 mps 727 mmHg 52%
20:00 +37°C° 0.1 mm 4 mps 728 mmHg 54%
21:00 +37°C° 0.1 mm 5 mps 728 mmHg 56%
22:00 +36°C° 0.1 mm 5 mps 728 mmHg 58%
23:00 +36°C° 0.1 mm 6 mps 728 mmHg 60%

7 August, Friday

Time Temperature Precipitation Wind Pressure Humidity
00:00 +35°C° 0 mm 6 mps 728 mmHg 61%
01:00 +35°C° 0 mm 6 mps 728 mmHg 63%
02:00 +34°C° 0 mm 6 mps 727 mmHg 65%
03:00 +34°C° 0 mm 6 mps 728 mmHg 66%
04:00 +34°C° 0 mm 6 mps 728 mmHg 67%
05:00 +33°C° 0 mm 5 mps 728 mmHg 69%
06:00 +34°C° 0 mm 6 mps 728 mmHg 66%
07:00 +35°C° 0 mm 6 mps 729 mmHg 63%
08:00 +35°C° 0 mm 7 mps 729 mmHg 61%
09:00 +38°C° 0 mm 7 mps 729 mmHg 56%
10:00 +39°C° 0 mm 7 mps 729 mmHg 52%
11:00 +40°C° 0 mm 7 mps 729 mmHg 47%
12:00 +41°C° 0.1 mm 6 mps 729 mmHg 46%
13:00 +41°C° 0.1 mm 6 mps 728 mmHg 44%
14:00 +42°C° 0.1 mm 5 mps 728 mmHg 43%
15:00 +41°C° 0 mm 5 mps 727 mmHg 43%
16:00 +41°C° 0 mm 5 mps 727 mmHg 44%
17:00 +41°C° 0 mm 4 mps 727 mmHg 44%
18:00 +40°C° 0 mm 4 mps 727 mmHg 46%
19:00 +39°C° 0 mm 3 mps 727 mmHg 48%
20:00 +38°C° 0 mm 3 mps 727 mmHg 51%
21:00 +37°C° 0 mm 3 mps 728 mmHg 51%
22:00 +37°C° 0 mm 3 mps 728 mmHg 52%
23:00 +37°C° 0 mm 3 mps 728 mmHg 53%

8 August, Saturday

Time Temperature Precipitation Wind Pressure Humidity
00:00 +36°C° 0 mm 3 mps 728 mmHg 55%
01:00 +36°C° 0 mm 3 mps 728 mmHg 56%
02:00 +36°C° 0 mm 2 mps 727 mmHg 57%
03:00 +36°C° 0 mm 2 mps 727 mmHg 59%
04:00 +35°C° 0 mm 2 mps 727 mmHg 60%
05:00 +34°C° 0 mm 1 mps 727 mmHg 61%
06:00 +35°C° 0 mm 1 mps 728 mmHg 59%
07:00 +35°C° 0 mm 1 mps 728 mmHg 56%
08:00 +36°C° 0 mm 1 mps 729 mmHg 54%
09:00 +37°C° 0 mm 1 mps 728 mmHg 50%
10:00 +40°C° 0 mm 1 mps 728 mmHg 46%
11:00 +41°C° 0 mm 1 mps 728 mmHg 42%
12:00 +41°C° 0 mm 1 mps 728 mmHg 42%
13:00 +41°C° 0 mm 2 mps 727 mmHg 41%
14:00 +41°C° 0 mm 2 mps 726 mmHg 41%
15:00 +40°C° 0.1 mm 2 mps 726 mmHg 44%
16:00 +39°C° 0.1 mm 2 mps 726 mmHg 46%
17:00 +39°C° 0.1 mm 2 mps 725 mmHg 49%
18:00 +38°C° 0.1 mm 2 mps 725 mmHg 50%
19:00 +38°C° 0.1 mm 2 mps 726 mmHg 50%
20:00 +38°C° 0.1 mm 2 mps 726 mmHg 50%
21:00 +38°C° 0 mm 2 mps 726 mmHg 51%
22:00 +38°C° 0 mm 2 mps 726 mmHg 51%
23:00 +37°C° 0 mm 2 mps 726 mmHg 51%
Show more